Torna al catalogo

STARLINK-34807

AttivoComunicazioniVLEO
NORAD 65028·PAYLOAD·🇺🇸 United States

Lanciato Jul 30, 2025 da Cape Canaveral Space Force Station

Loading…

Prossimi Passaggi (prossime 24 ore)

TLE

AggiornatoSource: CelesTrak SupGP

Epoca: Sep 14, 2026, 22:56 UTC

1 65028C 25161P   26257.95604167 -.00001800  00000+0 -53195-4 0  2570
2 65028  53.1569 131.5618 0001062  85.3909  36.0058 15.34383264    12

Traccia STARLINK-34807 in tempo reale con AllMySat

Download on the App Store